[[{"header":{"parameterUnit":"m.s-1","parameterCategory":1,"la1":30.2991,"la2":30.254,"lo1":-89.0895,"lo2":-89.0444,"dy":0.0017,"dx":0.0017,"nx":28,"ny":28,"refTime":"2025-11-11T03:00:00:Z","depth":0,"parameterNumber":2,"parameterNumberName":"U-component_of_WINDS"},"data":[0,0,0,0,0,0,0,0,0,0,0,0,0,0,0,0,0,0,0,0,0,0,0,0,0,0,0,0,0,0,0,0,0,0,0,0,0,0,0,0,0,0,0,0,0,0,0,0,0,0,0,0,0,0,0,0,0,0,-0.0809,-0.0809,0,-0.076,-0.076,-0.0759,-0.0715,-0.0714,-0.0714,-0.0713,-0.0663,-0.0662,-0.0662,0,0,0,0,0,0,0,0,0,0,0,0,0,-0.0864,-0.0864,-0.0809,-0.0808,-0.0808,-0.076,-0.076,-0.0759,-0.0715,-0.0714,-0.0713,-0.0713,-0.0663,-0.0662,-0.0661,0,0,0,0,0,0,0,0,0,0,0,0,0,-0.0831,-0.0863,-0.0809,-0.078,-0.0777,-0.0761,-0.076,-0.0759,-0.0715,-0.0714,-0.0713,-0.0712,-0.0664,-0.0663,-0.0661,-0.067,0,0,-0.0658,-0.0657,0,0,0,0,0,0,0,0,-0.0833,-0.0829,-0.0785,-0.0782,-0.0778,-0.0743,-0.0761,-0.0729,-0.0715,-0.0738,-0.0713,-0.0712,-0.069,-0.0687,-0.0679,-0.0668,-0.0666,-0.0657,-0.0657,-0.0656,-0.0656,0,0,0,0,0,0,0,-0.0835,-0.083,-0.079,-0.0784,-0.078,-0.077,-0.0764,-0.0755,-0.072,-0.0736,-0.0733,-0.0728,-0.0688,-0.0681,-0.0678,-0.0665,-0.0657,-0.0656,-0.0656,-0.0655,-0.0659,-0.0659,0,0,0,0,0,0,-0.0842,-0.0833,-0.0791,-0.0788,-0.0804,-0.0769,-0.0763,-0.0755,-0.0719,-0.0713,-0.0729,-0.0726,-0.0683,-0.0679,-0.0676,-0.0684,-0.0656,-0.0655,-0.0654,-0.0658,-0.0659,-0.066,0,0,0,0,0,0,-0.0843,-0.0838,-0.0793,-0.081,-0.0803,-0.0769,-0.0761,-0.0755,-0.0747,-0.0714,-0.0707,-0.0727,-0.0682,-0.0678,-0.0672,-0.0682,-0.0654,-0.0653,-0.0657,-0.0658,-0.0659,-0.07,0,0,0,0,0,0,-0.0845,-0.0839,-0.0842,-0.081,-0.0802,-0.079,-0.0761,-0.0754,-0.0745,-0.0741,-0.0711,-0.0705,-0.0681,-0.0674,-0.0671,-0.068,-0.0652,-0.0656,-0.0657,-0.0659,-0.0698,-0.0703,-0.0707,0,0,0,0,0,-0.0847,-0.0855,-0.0842,-0.0837,-0.0805,-0.0791,-0.0786,-0.0759,-0.0746,-0.0748,-0.0727,-0.0706,-0.0682,-0.0674,-0.067,-0.0678,-0.0655,-0.0657,-0.0659,-0.0696,-0.0702,-0.0707,0,0,0,0,0,0,-0.0889,-0.0851,-0.0836,-0.0834,-0.0816,-0.0783,-0.0785,-0.0766,-0.0752,-0.0749,-0.0716,-0.0709,-0.0707,-0.0692,-0.0685,-0.0685,-0.0665,-0.0667,-0.0695,-0.0701,-0.0705,-0.0709,-0.0651,0,0,0,0,0,-0.0898,-0.0889,-0.0856,-0.0858,-0.085,-0.0819,-0.0812,-0.0793,-0.0773,-0.0765,-0.0743,-0.0725,-0.0713,-0.0706,-0.0693,-0.0696,-0.0689,-0.07,-0.0705,-0.0708,-0.071,-0.0711,-0.0715,-0.0666,-0.0666,-0.0666,0,0,-0.0917,-0.0895,-0.0891,-0.0866,-0.085,-0.0842,-0.0813,-0.0806,-0.08,-0.0764,-0.0757,-0.0741,-0.0718,-0.0717,-0.0715,-0.0704,-0.0722,-0.0711,-0.0714,-0.0713,-0.0713,-0.0718,-0.0722,-0.0667,-0.0667,-0.0667,0,0,-0.0946,-0.0929,-0.0928,-0.0913,-0.0889,-0.0869,-0.0869,-0.0839,-0.0827,-0.082,-0.0793,-0.0786,-0.0766,-0.0751,-0.0741,-0.0767,-0.0747,-0.0764,-0.0787,-0.0789,-0.0792,-0.0796,-0.0805,-0.0809,-0.0765,-0.0765,-0.0765,0,-0.0972,-0.0959,-0.0931,-0.0925,-0.0915,-0.0883,-0.0883,-0.0869,-0.0842,-0.0836,-0.0824,-0.08,-0.0782,-0.0777,-0.0784,-0.0776,-0.0776,-0.0767,-0.0794,-0.0797,-0.08,-0.0809,-0.0812,-0.0767,-0.0767,-0.0767,-0.0767,0,-0.0993,-0.0984,-0.0987,-0.0962,-0.0952,-0.0949,-0.0921,-0.0915,-0.0897,-0.0878,-0.0872,-0.085,-0.0833,-0.083,-0.0812,-0.0823,-0.0817,-0.08,-0.0779,-0.0807,-0.0815,-0.0818,-0.0771,-0.077,-0.0769,-0.0769,0,0,-0.1046,-0.1007,-0.1008,-0.0997,-0.0968,-0.0961,-0.0958,-0.0941,-0.0936,-0.0919,-0.0916,-0.09,-0.0885,-0.0874,-0.0854,-0.0855,-0.0878,-0.0838,-0.0837,-0.0847,-0.0889,-0.0901,-0.0906,-0.0865,-0.0865,-0.0866,-0.0891,0,-0.1071,-0.1062,-0.1037,-0.1036,-0.1028,-0.0998,-0.0994,-0.0977,-0.096,-0.0951,-0.0932,-0.0922,-0.0902,-0.0895,-0.0895,-0.0875,-0.0886,-0.0873,-0.0861,-0.0861,-0.0867,-0.091,-0.0923,-0.0947,-0.0893,-0.0894,-0.0894,0,-0.1099,-0.1084,-0.1082,-0.1055,-0.1051,-0.1048,-0.1032,-0.1023,-0.1003,-0.0991,-0.0979,-0.0958,-0.0953,-0.0934,-0.0926,-0.0918,-0.0912,-0.0902,-0.0902,-0.09,-0.0879,-0.0908,-0.0955,-0.0958,-0.0899,-0.0898,-0.0898,0,-0.1139,-0.1118,-0.1115,-0.1106,-0.1074,-0.1073,-0.106,-0.1039,-0.1031,-0.1017,-0.1011,-0.0996,-0.0988,-0.0977,-0.0953,-0.0941,-0.0949,-0.0928,-0.0938,-0.0939,-0.0941,-0.0941,-0.0987,-0.0937,-0.0937,-0.0937,-0.0937,0,-0.1169,-0.1169,-0.1132,-0.113,-0.1129,-0.1101,-0.1101,-0.1085,-0.1067,-0.1062,-0.1035,-0.1031,-0.0999,-0.0991,-0.0971,-0.0969,-0.0965,-0.0955,-0.095,-0.0958,-0.0959,-0.0953,-0.095,-0.0938,-0.0938,-0.0938,-0.0938,0,-0.1213,-0.1188,-0.1182,-0.1153,-0.1146,-0.1147,-0.1122,-0.1119,-0.1101,-0.1094,-0.1091,-0.1062,-0.1052,-0.1026,-0.1009,-0.0996,-0.0999,-0.0989,-0.1005,-0.1002,-0.1014,-0.1014,-0.1058,-0.1062,-0.101,-0.1011,-0.1011,0,-0.1234,-0.1233,-0.1204,-0.1199,-0.1187,-0.1178,-0.117,-0.1142,-0.1135,-0.1113,-0.1113,-0.11,-0.1088,-0.1073,-0.105,-0.1037,-0.1027,-0.1044,-0.1025,-0.1033,-0.1028,-0.1028,-0.1028,-0.1048,-0.1048,-0.1049,-0.1049,0,-0.1274,-0.1262,-0.1251,-0.1236,-0.1227,-0.1214,-0.1199,-0.1196,-0.1165,-0.1158,-0.1147,-0.1138,-0.1121,-0.1109,-0.1092,-0.1079,-0.106,-0.1056,-0.1057,-0.1065,-0.1074,-0.107,-0.1016,-0.1055,-0.1054,-0.1054,-0.1053,-0.1053,-0.1307,-0.1305,-0.1285,-0.1274,-0.126,-0.1247,-0.1243,-0.1225,-0.1215,-0.1199,-0.1183,-0.1174,-0.1155,-0.1131,-0.1119,-0.1112,-0.1101,-0.1104,-0.1105,-0.1106,-0.1109,-0.1076,-0.1109,-0.1108,-0.1108,-0.1108,-0.1108,0,-0.1345,-0.1331,-0.1321,-0.1302,-0.1293,-0.1276,-0.1259,-0.1253,-0.1246,-0.123,-0.1219,-0.1207,-0.1195,-0.1173,-0.1159,-0.1158,-0.1148,-0.1155,-0.1155,-0.1152,-0.1119,-0.1119,-0.1163,-0.1163,-0.1163,-0.1163,-0.1163,-0.1163,-0.1364,-0.1361,-0.1347,-0.1337,-0.1322,-0.1313,-0.1305,-0.1293,-0.1281,-0.1268,-0.1258,-0.1244,-0.1225,-0.1211,-0.12,-0.1193,-0.119,-0.12,-0.1191,-0.116,-0.1155,-0.115,-0.1149,-0.1199,-0.1199,-0.1224,-0.1225,-0.1225]},{"header":{"parameterUnit":"m.s-1","parameterCategory":1,"la1":30.2991,"la2":30.254,"lo1":-89.0895,"lo2":-89.0444,"dy":0.0017,"dx":0.0017,"nx":28,"ny":28,"refTime":"2025-11-11T03:00:00:Z","depth":0,"parameterNumber":3,"parameterNumberName":"V-component_of_WINDS"},"data":[0,0,0,0,0,0,0,0,0,0,0,0,0,0,0,0,0,0,0,0,0,0,0,0,0,0,0,0,0,0,0,0,0,0,0,0,0,0,0,0,0,0,0,0,0,0,0,0,0,0,0,0,0,0,0,0,0,0,2.4417,2.4416,0,2.4365,2.4364,2.4364,2.4362,2.4362,2.4363,2.4364,2.4305,2.4303,2.4301,0,0,0,0,0,0,0,0,0,0,0,0,0,2.451,2.4508,2.4417,2.4416,2.4416,2.4365,2.4364,2.4364,2.4362,2.4362,2.4363,2.4364,2.4306,2.4304,2.4301,0,0,0,0,0,0,0,0,0,0,0,0,0,2.4465,2.4508,2.4417,2.4409,2.4407,2.4365,2.4364,2.4363,2.4362,2.4362,2.4363,2.4364,2.4307,2.4304,2.4301,2.4262,0,0,2.4291,2.4289,0,0,0,0,0,0,0,0,2.4467,2.4461,2.441,2.4409,2.4408,2.4371,2.4376,2.4329,2.4361,2.4379,2.4364,2.4365,2.4326,2.4321,2.4309,2.4259,2.4257,2.4291,2.4289,2.4287,2.4286,0,0,0,0,0,0,0,2.4471,2.4464,2.4396,2.441,2.4408,2.4406,2.4401,2.4367,2.4347,2.4377,2.4377,2.4371,2.4325,2.4312,2.4308,2.4256,2.4291,2.4288,2.4286,2.4285,2.4171,2.417,0,0,0,0,0,0,2.4476,2.4466,2.4398,2.4395,2.4441,2.4404,2.4398,2.4382,2.4348,2.4344,2.437,2.4371,2.4318,2.4312,2.4306,2.4258,2.4287,2.4284,2.4282,2.4172,2.4171,2.417,0,0,0,0,0,0,2.4478,2.447,2.44,2.443,2.4421,2.4401,2.4383,2.438,2.4367,2.4343,2.4339,2.4361,2.4318,2.431,2.4273,2.4256,2.4283,2.428,2.4173,2.4172,2.417,2.4163,0,0,0,0,0,0,2.4481,2.4471,2.4457,2.443,2.442,2.4369,2.4382,2.4378,2.4362,2.4363,2.4333,2.4329,2.4318,2.4278,2.427,2.4252,2.4277,2.4175,2.4173,2.4171,2.4165,2.4161,2.4159,0,0,0,0,0,2.4484,2.4455,2.4456,2.4448,2.4402,2.4368,2.4362,2.4352,2.4361,2.4346,2.4331,2.433,2.426,2.4274,2.4265,2.4246,2.4176,2.4173,2.4171,2.4166,2.4162,2.4159,0,0,0,0,0,0,2.4478,2.4452,2.4452,2.4414,2.4394,2.4368,2.4349,2.4348,2.4323,2.4325,2.4311,2.4305,2.4268,2.4253,2.427,2.4207,2.4219,2.4214,2.4218,2.4214,2.4211,2.4215,2.4275,0,0,0,0,0,2.4473,2.4449,2.4427,2.4395,2.4385,2.4369,2.4354,2.4348,2.4326,2.4316,2.4298,2.4275,2.4248,2.423,2.4204,2.4163,2.4156,2.4145,2.4142,2.414,2.4136,2.4114,2.4109,2.4162,2.4162,2.4162,0,0,2.4461,2.4443,2.4429,2.4394,2.4377,2.4352,2.4362,2.4334,2.4315,2.4312,2.4276,2.4262,2.4235,2.4196,2.4178,2.4183,2.412,2.4137,2.4135,2.4132,2.411,2.4105,2.4101,2.416,2.416,2.4161,0,0,2.4426,2.4411,2.4383,2.4367,2.4343,2.4332,2.4326,2.4301,2.4292,2.4256,2.4254,2.423,2.4183,2.4165,2.4149,2.4109,2.4107,2.41,2.4084,2.4062,2.4058,2.4054,2.404,2.4035,2.4097,2.4097,2.4097,0,2.4413,2.4377,2.4369,2.4342,2.4326,2.4325,2.4296,2.428,2.4248,2.4237,2.4243,2.4186,2.4167,2.4124,2.4115,2.4102,2.4094,2.4103,2.406,2.4056,2.4052,2.4038,2.4032,2.4096,2.4096,2.4096,2.4096,0,2.4362,2.4337,2.4317,2.4289,2.4271,2.4243,2.423,2.4213,2.4209,2.4198,2.4161,2.414,2.4109,2.4099,2.4094,2.4055,2.4059,2.4063,2.4074,2.4046,2.4033,2.4027,2.4095,2.4095,2.4096,2.4096,0,0,2.4321,2.429,2.4283,2.427,2.4244,2.4223,2.4195,2.4167,2.4153,2.4131,2.4106,2.4068,2.4072,2.4054,2.4047,2.4028,2.3997,2.4034,2.4033,2.4028,2.3953,2.395,2.3944,2.3997,2.3996,2.3995,2.3955,0,2.4283,2.4236,2.4228,2.4186,2.4162,2.4161,2.4136,2.4117,2.4106,2.4083,2.407,2.4043,2.405,2.4039,2.4021,2.4005,2.3982,2.4008,2.3973,2.3972,2.3979,2.3937,2.3934,2.3897,2.395,2.3949,2.3949,0,2.4232,2.4211,2.4167,2.4145,2.4135,2.4113,2.4088,2.4066,2.4044,2.4037,2.4018,2.4014,2.3984,2.3997,2.3955,2.3973,2.3958,2.3949,2.3947,2.3943,2.3958,2.3931,2.3886,2.388,2.394,2.3941,2.3941,0,2.4207,2.4167,2.4136,2.4125,2.4098,2.4083,2.4071,2.405,2.4034,2.4011,2.4001,2.3974,2.3959,2.3938,2.3926,2.3937,2.3885,2.3897,2.3877,2.3877,2.3865,2.3866,2.3816,2.3857,2.3857,2.3857,2.3857,0,2.4165,2.4138,2.4124,2.4104,2.4074,2.4065,2.4035,2.4023,2.4005,2.3982,2.3979,2.3957,2.3943,2.3919,2.391,2.3876,2.3869,2.3862,2.386,2.3862,2.3863,2.3852,2.3854,2.3856,2.3856,2.3856,2.3856,0,2.413,2.412,2.4086,2.4065,2.4059,2.4037,2.4018,2.3998,2.3988,2.3959,2.3952,2.3935,2.3907,2.3893,2.3858,2.3851,2.3814,2.3813,2.3822,2.3821,2.3802,2.3804,2.3742,2.3734,2.378,2.378,2.378,0,2.4104,2.4084,2.4061,2.4046,2.4035,2.4011,2.3996,2.3986,2.397,2.3944,2.3927,2.39,2.3877,2.3832,2.3816,2.3789,2.3787,2.3768,2.3783,2.3786,2.3786,2.3788,2.3785,2.3764,2.3764,2.3764,2.3763,0,2.4059,2.4055,2.4034,2.4011,2.3993,2.3973,2.3954,2.3942,2.393,2.3912,2.3884,2.3867,2.3832,2.3804,2.3776,2.3762,2.376,2.3759,2.3753,2.3755,2.3761,2.3757,2.3814,2.376,2.376,2.3761,2.3761,2.3761,2.4027,2.4009,2.3991,2.3967,2.3953,2.3935,2.3916,2.3905,2.3882,2.3854,2.385,2.382,2.3799,2.3762,2.3747,2.3723,2.3727,2.3718,2.3716,2.3714,2.3713,2.3765,2.3718,2.3718,2.3718,2.3718,2.3718,0,2.3981,2.397,2.3949,2.3923,2.3905,2.3907,2.3886,2.387,2.3845,2.3826,2.3805,2.3773,2.3746,2.3729,2.3701,2.3685,2.3684,2.3679,2.3679,2.3676,2.3711,2.3719,2.368,2.368,2.368,2.368,2.368,2.368,2.3955,2.3925,2.392,2.3882,2.387,2.3843,2.3831,2.3815,2.38,2.3766,2.3745,2.3734,2.3715,2.3687,2.3662,2.3658,2.3647,2.3642,2.3637,2.367,2.3674,2.3677,2.3685,2.364,2.364,2.3605,2.3604,2.3604]}]]